EHI
2 7 17 25 28 28 26 26 28 30 32 33 32 30 26 21 17 15 11 5 2 2 1 0 0 0 0 0 1 1 1 0 0 0 0 0 0 0 0 0 0 0 0
4 9 19 27 30 31 29 28 28 28 30 31 31 30 27 23 20 17 11 5 2 1 1 0 0 0 0 0 0 0 0 0 0 0 0 0 0 0 0 0 0 0 0
9 12 20 29 34 35 33 31 28 25 25 26 27 27 25 22 19 17 12 6 3 1 1 0 0 0 0 0 0 0 0 0 0 0 0 0 0 0 0 0 0 0 0
13 15 20 28 34 36 35 33 29 24 21 22 23 23 21 17 15 14 11 7 4 3 2 1 0 0 0 0 0 0 0 0 0 0 0 0 0 0 0 0 0 0 0
13 16 20 27 31 32 32 31 28 23 20 18 19 19 18 15 13 12 10 7 5 4 2 1 0 0 0 0 0 0 0 0 0 0 0 0 0 0 0 0 0 0 0
11 14 19 25 28 28 27 26 24 21 18 16 15 15 15 14 12 10 9 7 5 4 3 2 1 0 0 0 0 0 0 0 0 0 0 0 0 0 0 0 0 0 0
9 12 17 23 25 25 25 23 21 19 18 16 14 13 12 12 9 7 6 6 4 3 2 2 1 0 0 0 0 0 0 0 0 0 0 0 0 0 0 0 0 0 0
8 11 15 19 22 23 22 21 19 18 17 16 14 11 9 7 6 4 3 3 1 1 1 1 0 0 0 0 0 0 0 0 0 0 0 0 0 0 0 0 0 0 0
8 10 13 15 18 19 19 18 17 16 14 14 11 9 6 5 4 2 1 1 0 0 0 0 0 0 0 0 0 0 0 0 0 0 0 0 0 0 0 1 0 0 0
7 9 11 12 14 15 14 14 13 12 10 9 8 6 3 3 2 1 0 0 0 0 0 0 0 0 0 0 0 0 0 0 0 0 0 0 0 0 0 0 0 0 0
5 6 8 9 10 11 11 11 10 8 6 5 4 3 1 1 1 0 0 0 0 0 0 0 0 0 0 0 0 0 0 0 0 0 0 0 0 0 0 0 0 0 0
3 4 5 5 7 9 9 9 7 5 3 2 1 1 0 0 0 0 0 0 0 0 0 0 0 0 0 0 0 0 0 0 0 0 0 0 0 0 0 0 0 0 0
3 3 3 3 5 7 8 7 5 2 1 0 0 0 0 0 0 0 0 0 0 0 0 0 0 0 0 0 0 0 0 0 0 0 0 0 0 0 0 0 0 0 0
4 3 3 3 3 4 5 3 2 0 0 0 0 0 0 0 0 0 0 0 0 0 0 0 0 0 0 0 0 0 0 0 0 0 0 0 0 0 0 0 0 0 0
3 2 3 3 2 1 1 1 0 0 0 0 0 0 0 0 0 0 0 0 0 0 0 0 0 0 0 0 0 0 0 0 0 0 0 0 0 0 0 0 0 0 0
1 1 2 3 1 0 0 0 0 0 0 0 0 0 0 0 0 0 0 0 0 0 0 0 0 0 0 0 0 0 0 0 0 0 0 0 0 0 0 0 0 0 0
0 1 2 2 1 0 0 0 0 0 0 0 0 0 0 0 0 0 0 0 0 0 0 0 0 0 0 0 0 0 0 0 0 0 0 0 0 0 0 0 0 0 0
0 1 2 1 0 0 0 0 0 0 0 0 0 0 0 0 0 0 0 0 0 0 0 0 0 0 0 0 0 0 0 0 0 0 0 0 0 0 0 0 0 0 0
0 1 1 1 0 0 0 0 0 0 0 0 0 0 0 0 0 0 0 0 0 0 0 0 0 0 0 0 0 0 0 0 0 0 0 0 0 0 0 0 0 0 0
0 0 0 0 0 0 0 0 0 0 0 0 0 0 0 0 0 0 0 0 0 0 0 0 0 0 0 0 0 0 0 0 0 0 0 0 0 0 0 0 0 0 0
0 0 0 0 0 0 0 0 0 0 0 0 0 0 0 0 0 0 0 0 0 0 0 0 0 0 0 0 0 0 0 0 0 0 0 0 0 0 0 0 0 0 0
0 0 0 0 0 0 0 0 0 0 0 0 0 0 0 0 0 0 0 0 0 0 0 0 0 0 0 0 0 0 0 0 0 0 0 0 0 0 0 0 0 0 0
0 0 0 0 0 0 0 0 0 0 0 0 0 0 0 0 0 0 0 0 0 0 0 0 0 0 0 0 0 0 0 0 0 0 0 0 0 0 0 0 0 0 0
0 0 0 0 0 0 0 0 0 0 0 0 0 0 0 0 0 0 0 0 0 0 0 0 0 0 0 0 0 0 0 0 0 0 0 0 0 0 0 0 0 0 0
0 0 0 0 0 0 0 0 0 0 0 0 0 0 0 0 0 0 0 0 0 0 0 0 0 0 0 0 0 0 0 0 0 0 0 0 0 0 0 0 0 0 0
0 0 0 0 0 0 0 0 0 0 0 0 0 0 0 0 0 0 0 0 0 0 0 0 0 0 0 0 0 0 0 0 0 0 0 0 0 0 0 0 0 0 0
Wind_Speed
3 3 7 9 10 10 10 10 10 10 10 10 10 10 10 9 9 9 8 8 7 7 7 7 7 7 7 6 7 7 6 6 7 6 6 6 5 5 5 4 4 2 4
5 4 8 10 11 10 10 10 10 10 10 10 10 10 10 9 9 9 8 7 7 7 7 6 6 6 6 7 7 6 6 6 6 6 6 5 5 4 4 3 2 1 2
6 5 7 10 11 11 10 10 10 10 10 10 10 10 10 9 9 8 8 7 7 6 6 6 6 6 6 6 6 5 5 6 6 6 5 3 3 3 3 3 2 2 2
6 5 6 10 11 11 11 10 10 10 10 10 9 9 9 9 8 8 8 7 7 6 6 6 5 5 6 6 6 5 5 5 6 5 3 2 2 2 2 2 2 1 1
5 5 7 11 11 11 11 10 10 10 10 9 9 9 9 9 8 8 8 8 7 7 7 6 6 6 6 5 5 5 5 6 6 5 2 2 2 2 2 1 1 1 1
5 4 6 11 11 11 11 10 10 10 9 9 9 9 9 9 9 9 8 8 8 7 7 7 6 6 6 5 5 5 5 6 5 3 2 2 1 2 3 2 1 1 1
5 4 5 10 11 10 10 10 9 9 9 9 9 9 9 9 8 8 8 8 8 7 7 7 6 6 6 6 5 5 5 6 4 3 2 2 2 3 3 2 2 2 2
5 4 5 9 10 9 9 9 9 9 8 8 8 9 9 8 8 8 8 7 7 7 7 6 6 6 6 6 6 5 5 5 3 2 2 1 3 3 3 2 2 2 2
5 5 4 4 6 8 9 9 9 8 8 8 8 8 8 8 8 8 7 7 7 7 7 6 6 6 6 6 6 6 6 6 3 1 2 1 3 4 3 3 3 2 3
4 4 4 4 4 4 5 8 9 8 8 8 9 9 8 8 8 8 7 7 7 7 6 6 6 6 6 6 6 7 6 5 2 2 1 2 4 4 4 4 4 3 3
4 3 4 4 4 4 4 6 7 8 8 8 7 9 8 4 4 4 6 7 7 7 7 7 7 7 7 6 6 6 5 2 2 2 1 4 5 5 5 4 4 4 5
6 4 3 4 4 4 4 4 3 4 4 5 4 5 4 3 3 4 6 7 7 7 7 8 8 7 5 3 4 5 2 2 2 2 2 6 6 6 6 5 5 5 5
6 4 4 4 4 4 3 3 2 2 3 4 4 4 3 3 3 3 3 3 4 5 4 5 5 3 3 2 2 2 2 2 1 2 3 5 6 7 7 7 6 6 6
6 5 4 4 4 4 4 3 3 2 2 2 3 3 3 2 2 2 2 2 2 2 2 3 2 3 3 3 2 2 2 2 2 2 3 6 6 7 8 7 7 7 7
6 5 4 4 5 5 4 3 3 3 3 2 2 2 3 2 2 2 2 2 2 2 2 2 2 3 3 3 3 3 3 2 2 2 2 6 7 8 8 9 9 8 8
7 6 5 5 5 5 4 3 3 3 3 3 2 2 3 2 2 2 2 2 2 2 2 2 2 2 2 2 3 3 3 2 2 2 2 4 7 8 9 9 10 10 10
7 6 6 5 5 5 5 4 3 3 3 2 2 2 3 3 2 2 2 2 2 2 2 2 2 2 2 3 3 3 2 2 2 2 2 2 3 6 9 10 11 11 12
7 7 7 6 6 5 5 4 3 3 3 2 2 2 3 3 3 2 2 2 2 2 2 2 2 2 2 3 3 3 3 2 3 2 2 2 2 3 6 10 11 12 13
8 8 7 6 6 5 5 4 3 3 3 2 2 2 2 2 2 2 2 1 2 2 2 2 2 1 2 3 3 2 2 2 3 3 3 3 3 3 3 7 10 12 13
6 7 7 6 6 6 4 4 3 3 2 2 1 1 2 2 2 2 2 1 2 2 2 2 2 2 1 2 3 3 2 2 2 2 3 3 3 3 3 4 4 7 12
6 7 7 7 7 6 4 3 3 2 1 1 1 1 2 2 2 2 1 1 1 1 1 2 1 2 2 2 2 3 3 2 2 2 2 2 3 4 4 4 4 3 5
8 8 8 8 8 7 5 3 2 2 1 1 1 1 1 2 2 2 2 1 1 1 2 2 1 1 2 3 2 2 4 4 3 3 2 2 3 3 4 5 5 5 4
9 10 9 9 8 7 5 4 3 3 2 1 1 0 0 1 1 1 1 1 1 1 0 1 1 1 1 2 1 1 1 3 5 3 3 3 3 4 4 4 5 5 6
9 8 8 8 8 7 7 6 6 4 3 3 2 1 1 1 1 1 1 1 1 1 0 0 0 0 0 1 1 0 1 2 2 5 4 3 4 5 5 6 6 6 6
7 7 7 8 7 7 7 7 7 4 3 2 2 2 1 0 1 1 1 1 1 1 0 0 0 0 0 1 1 1 1 1 2 2 6 6 5 4 4 5 5 5 5
4 6 7 8 7 7 7 7 7 6 5 4 3 2 1 0 0 0 1 1 1 1 1 1 1 1 1 1 1 1 1 1 2 2 5 7 8 5 5 4 4 4 4
Wind_Direction
181 183 161 139 131 126 120 116 112 109 108 109 107 106 106 107 107 105 102 99 98 97 96 97 95 89 86 86 84 85 82 79 76 75 73 70 72 76 84 83 79 66 80
151 159 148 136 130 125 119 115 111 107 105 104 105 105 105 104 103 104 104 102 98 95 93 93 91 87 83 81 82 81 79 77 74 69 65 59 55 59 70 80 82 83 87
133 140 139 130 127 124 119 115 111 107 104 100 99 99 100 99 98 99 100 98 95 90 89 90 86 81 79 76 75 77 76 72 71 64 59 44 30 42 53 74 76 78 81
129 129 133 129 126 124 122 118 114 110 106 102 100 98 98 97 97 95 93 89 86 83 82 83 81 78 75 72 70 69 70 70 66 62 57 37 9 23 37 67 73 65 53
118 122 133 128 126 124 122 117 113 110 107 103 100 97 95 91 89 87 83 78 77 75 74 76 76 74 71 68 68 67 65 63 62 59 49 26 359 11 21 45 50 39 31
117 117 131 129 127 125 122 118 113 110 107 103 99 96 92 87 81 78 75 73 72 71 70 69 67 66 65 64 65 64 62 59 58 53 38 7 341 351 3 16 24 15 2
123 116 128 130 129 126 123 120 115 110 107 104 100 96 91 87 82 78 74 70 68 68 67 64 61 59 58 57 56 54 56 55 57 48 27 357 339 350 352 357 3 354 330
126 116 125 131 128 126 124 121 116 112 108 104 101 96 91 87 83 79 75 69 66 64 60 57 54 52 51 50 45 42 47 52 52 37 10 348 342 338 337 342 344 335 327
112 108 100 111 118 121 121 118 114 110 106 102 98 92 88 85 81 76 72 67 63 59 54 49 48 45 42 42 39 38 42 42 45 18 354 334 337 331 333 337 333 330 334
99 102 102 97 97 99 108 112 109 106 102 96 90 84 79 75 71 69 64 63 59 55 50 44 42 41 38 37 37 36 36 36 21 358 336 321 334 325 320 321 320 314 312
122 110 112 108 102 101 101 100 97 96 92 86 82 79 72 58 55 55 57 59 55 50 47 43 43 40 38 34 33 33 33 24 8 348 322 333 329 322 321 319 313 308 306
163 154 132 125 118 108 95 86 78 77 78 75 75 73 67 61 55 55 53 53 49 46 44 43 41 37 35 22 18 23 21 12 9 337 331 339 327 319 319 320 317 310 306
166 158 147 135 125 116 106 97 84 78 76 74 76 77 75 63 52 46 42 34 32 37 32 28 28 23 22 15 9 9 11 10 354 331 328 339 332 326 320 320 317 311 308
161 166 153 141 132 122 114 106 102 95 87 83 78 82 85 73 56 48 46 32 30 27 29 25 21 14 15 10 6 5 4 358 341 330 333 349 340 330 329 327 322 315 312
168 169 163 150 143 133 119 117 105 104 102 98 87 78 90 92 78 60 47 40 31 29 33 24 19 14 8 0 358 358 349 342 336 331 328 341 339 332 326 328 326 320 314
177 173 162 154 148 136 128 124 119 114 110 102 96 92 92 96 93 78 57 42 32 28 29 30 19 12 356 350 351 345 332 327 328 331 327 332 339 336 329 325 326 322 316
176 167 164 158 146 141 134 130 124 123 118 110 102 96 93 94 95 87 70 47 24 21 28 30 20 19 10 359 348 338 334 329 326 325 322 320 324 336 334 328 325 323 318
167 165 167 160 150 146 137 131 126 122 117 113 109 101 95 93 97 90 76 47 21 28 31 31 20 16 6 354 338 330 330 327 331 323 325 324 321 322 327 331 327 324 322
173 167 164 157 154 147 132 121 116 113 111 114 113 110 106 99 97 95 84 54 38 41 28 17 23 18 354 344 329 328 330 329 323 327 326 324 320 315 314 328 329 325 321
168 163 160 152 147 136 121 107 97 95 97 102 114 123 118 109 102 96 87 59 52 51 24 18 11 7 347 328 325 326 316 313 314 321 313 318 321 316 315 314 319 322 322
160 161 164 156 154 147 142 143 139 147 145 131 138 132 126 120 116 111 99 69 57 59 29 11 6 7 358 345 356 336 319 305 308 303 311 317 319 315 318 315 308 304 309
174 172 169 167 166 168 164 153 140 134 141 153 152 131 131 129 132 127 122 113 88 74 38 24 23 11 358 8 24 3 342 335 336 319 324 315 311 316 319 316 308 304 299
181 180 178 177 172 168 152 128 107 87 77 90 115 155 181 147 142 133 133 132 126 117 89 2 41 64 341 347 33 92 36 301 316 313 306 309 313 314 311 309 303 299 298
193 182 176 174 170 165 155 155 155 162 172 189 172 171 175 157 155 142 146 149 151 141 146 278 41 171 156 316 330 319 202 225 293 311 308 303 302 304 302 304 302 297 294
187 176 172 167 169 166 165 166 163 164 163 144 139 143 149 175 189 170 162 155 160 175 198 259 333 273 189 235 268 277 289 284 236 266 300 312 310 290 288 288 288 288 289
175 169 166 166 171 169 168 170 171 169 160 154 162 168 179 206 243 214 171 159 180 194 210 226 228 238 246 242 249 245 235 250 267 260 283 303 306 301 295 286 285 281 283